This demonstration page uses our WeatherBlox Daily Observations layout. Learn more.

Left ArrowRight Arrow

39.08367, -84.50855

Hourly Observations for November 2, 2018

Temp ( °F °C ) Dew Point ( °F °C ) Humidity (%) Winds ( mph kmh ) Pressure ( in mb ) Visibility ( mi km ) Precip ( " mm )
12:53 am 00:53 Cloudy 50 10 48 8.9 93 93 SW 16 26 29.63 1003 10 16 0.00 0.00
1:53 am 01:53 Mostly Cloudy 49 9.4 46 7.8 90 90 SW 13 20 29.65 1004 10 16 0.00 0.00
2:00 am 02:00 Cloudy 49 9.4 46 7.8 90 90 SW 13 20 29.68 1005 10 16 0.00 0.00
2:41 am 02:41 Cloudy 48 8.9 46 7.8 93 93 WSW 12 19 29.71 1006 10 16 0.00 0.03
2:53 am 02:53 Cloudy with Light Rain 47 8.3 46 7.8 97 97 W 15 24 29.69 1005 8 13 0.00 0.03
3:06 am 03:06 Cloudy 47 8.3 46 7.8 97 97 WSW 14 22 29.74 1007 10 16 0.00 0.03
3:44 am 03:44 Cloudy 46 7.8 44 6.7 93 93 W 13 20 29.77 1008 10 16 0.00 0.03
3:53 am 03:53 Cloudy with Light Rain 46 7.8 44 6.7 93 93 WNW 10 17 29.73 1007 8 13 0.00 0.03
4:53 am 04:53 Cloudy 44 6.7 42 5.6 93 93 VRB 7 11 29.75 1007 10 16 0.00 0.03
5:53 am 05:53 Cloudy with Light Rain 44 6.7 42 5.6 93 93 WNW 9 15 29.79 1009 10 16 0.00 0.03
6:53 am 06:53 Cloudy 44 6.7 40 4.4 85 85 WNW 8 13 29.81 1010 10 16 0.00 0.03
7:27 am 07:27 Cloudy 44 6.7 41 5 89 89 Calm 29.83 1010 10 16 0.00 0.00
7:53 am 07:53 Cloudy 44 6.7 40 4.4 85 85 W 8 13 29.82 1010 10 16 0.00 0.00
8:53 am 08:53 Cloudy 44 6.7 41 5 89 89 W 6 9 29.84 1011 10 16 0.00 0.00
9:53 am 09:53 Cloudy 44 6.7 40 4.4 85 85 NW 8 13 29.84 1011 10 16 0.00 0.00
10:53 am 10:53 Cloudy 44 6.7 39 3.9 83 83 WNW 7 11 29.85 1011 10 16 0.00 0.00
11:53 am 11:53 Cloudy 45 7.2 39 3.9 80 80 Calm 29.86 1011 10 16 0.00 0.00
12:53 pm 12:53 Cloudy 45 7.2 41 5 86 86 NW 6 9 29.87 1011 10 16 0.00 0.03
1:53 pm 13:53 Cloudy 45 7.2 42 5.6 90 90 Calm 29.86 1011 9 14 0.00 0.03
2:33 pm 14:33 Cloudy 46 7.8 42 5.6 86 86 W 9 15 29.88 1012 10 16 0.00 0.00
2:53 pm 14:53 Cloudy 47 8.3 42 5.6 83 83 WNW 7 11 29.83 1010 10 16 0.00 0.00
3:53 pm 15:53 Cloudy with Light Rain 45 7.2 41 5 86 86 NW 8 13 29.83 1010 9 14 0.00 0.03
4:53 pm 16:53 Cloudy 46 7.8 42 5.6 86 86 N 5 7 29.85 1011 10 16 0.00 0.03
5:26 pm 17:26 Cloudy 46 7.8 40 4.4 79 79 N 6 9 29.88 1012 10 16 0.00 0.00
5:53 pm 17:53 Cloudy 46 7.8 40 4.4 79 79 NW 3 6 29.85 1011 10 16 0.00 0.00
6:11 pm 18:11 Cloudy 46 7.8 40 4.4 79 79 NW 3 6 29.88 1012 10 16 0.00 0.00
6:53 pm 18:53 Cloudy with Light Rain 45 7.2 40 4.4 83 83 NW 5 7 29.86 1011 10 16 0.00 0.03
7:03 pm 19:03 Cloudy with Light Rain 45 7.2 40 4.4 83 83 NW 5 7 29.91 1013 10 16 0.01 0.25
7:53 pm 19:53 Cloudy with Light Rain 44 6.7 39 3.9 83 83 Calm 29.88 1012 10 16 0.01 0.25
8:53 pm 20:53 Cloudy with Light Rain 44 6.7 40 4.4 85 85 NNW 3 6 29.90 1013 10 16 0.02 0.51
9:53 pm 21:53 Cloudy 43 6.1 42 5.6 97 97 Calm 29.90 1013 10 16 0.00 0.03
10:53 pm 22:53 Cloudy 43 6.1 42 5.6 97 97 SSW 3 6 29.91 1013 10 16 0.00 0.00
11:29 pm 23:29 Cloudy 44 6.7 42 5.6 93 93 SW 3 6 29.94 1014 10 16 0.00 0.00
11:53 pm 23:53 Cloudy with Light Rain 44 6.7 42 5.6 93 93 WSW 8 13 29.91 1013 10 16 0.00 0.03

Powered by AerisWeather